sat.trackr.live / text

‹ back to catalog

STARLINK-35514

NORAD 66535 · 2025-265V

PAYLOAD ACTIVE UNKNOWN

§ Identity

Operator
Country
US
Launch date
2025-11-19
Launch site
AFETR
Launch vehicle
Mass (kg)
RCS (m²)

Purposes: comms

External: N2YO · Heavens-Above · Gunter

§ Orbital elements

Epoch: 2026-05-25T05:12:19.259712Z

Period
94.27 min
Inclination
43.0027°
Eccentricity
0.0001501
Mean motion
15.27570588 rev/d
Perigee alt
482.0 km
Apogee alt
484.1 km
Semi-major
6,861.2 km
B*
5.5983e-4
RAAN
206.0620°
Arg perigee
278.5066°
Mean anomaly
81.5615°
Rev number
2,881

§ Raw data

STARLINK-355141 66535U 25265V   26145.21688958  .00015170  00000+0  55983-3 0  99962 66535  43.0027 206.0620 0001501 278.5066  81.5615 15.27570588 28813

JSON: /api/v1/satellites/66535 · /tle

For live sub-satellite position, see the globe view (requires WebGL).

§ Visibility from observer

Set your observer location to see the next 7 days of passes ≥ 10°. The values pass through the URL so the page stays shareable.

No JS? Fill the form by hand. The geolocation button needs JavaScript.